Weather History for Piney Island, NC

Change the Weather History Date:

Monday, February 4, 2013

  Actual Average (KMRH) Record (KMRH)
Temperature  
Mean Temperature 40 °F -  
Max Temperature 44 °F 56 °F 69 °F (1991)
Min Temperature 36 °F 35 °F 16 °F (1981)
Degree Days  
Heating Degree Days 25    
Moisture  
Dew Point 27 °F    
Average Humidity 58    
Maximum Humidity 71    
Minimum Humidity 42    
Precipitation  
Precipitation 0.00 in - - ()
Sea Level Pressure  
Sea Level Pressure 30.10 in    
Wind  
Wind Speed 7 mph (NNW)    
Max Wind Speed 12 mph    
Max Gust Speed -    
Averages and records for this station are not official NWS values.
T = Trace of Precipitation, MM = Missing Value Source: NWS Daily Summary

Daily Weather History Graph

Daily Weather History Graph

Search for Another Location

Airport:

Trip Planner

Search our weather history database for the weather conditions in past years. The results will help you decide how hot, cold, wet, or windy it might be!

Date:

Astronomy

Feb. 04, 2013 Rise Set
Actual Time 7:02 AM EST 5:37 PM EST
Civil Twilight 6:35 AM EST 6:04 PM EST
Nautical Twilight 6:05 AM EST 6:34 PM EST
Astronomical Twilight 5:35 AM EST 7:04 PM EST
Moon 1:32 AM EST (2/4) 12:03 PM EST (2/4)
Length of Visible Light 11h 28m
Length of Day
10h 35m
Last Quarter, 37% of the Moon is Illuminated
Feb 4
Last Quarter
Feb 10
New
Feb 17
First Quarter
Feb 25
Full
Mar 4
Last Quarter

Hourly Weather History & Observations

Time (EST) Temp. Windchill Dew Point Humidity Pressure Visibility Wind Dir Wind Speed Gust Speed Precip Events Conditions
12:56 AM 41.0 °F 35.8 °F 30.9 °F 67% 30.01 in - NNW 8.1 mph - N/A   Scattered Clouds
1:56 AM 39.9 °F 35.8 °F 28.9 °F 65% 30.03 in - NW 5.8 mph - N/A   Partly Cloudy
2:56 AM 39.0 °F 33.4 °F 28.0 °F 65% 30.04 in - NW 8.1 mph - N/A   Clear
3:56 AM 39.0 °F 33.4 °F 26.1 °F 60% 30.06 in - NW 8.1 mph - N/A   Clear
5:56 AM 36.0 °F 31.1 °F 26.1 °F 67% 30.08 in - NW 5.8 mph - N/A   Clear
6:56 AM 36.0 °F 31.1 °F 25.0 °F 64% 30.11 in - NNW 5.8 mph - N/A   Clear
7:56 AM 39.0 °F 32.3 °F 23.0 °F 53% 30.13 in - North 10.4 mph - N/A   Clear
8:56 AM 41.0 °F 34.3 °F 21.0 °F 45% 30.14 in - North 11.5 mph - N/A   Clear
9:56 AM 42.1 °F 35.7 °F 23.0 °F 47% 30.16 in - North 11.5 mph - N/A   Clear
10:56 AM 42.1 °F 37.7 °F 23.0 °F 47% 30.17 in - North 6.9 mph - N/A   Clear
11:56 AM 44.1 °F 42.5 °F 23.0 °F 43% 30.15 in - NNW 3.5 mph - N/A   Clear
12:56 PM 44.1 °F 40.8 °F 21.9 °F 42% 30.13 in - NW 5.8 mph - N/A   Clear
1:56 PM 44.1 °F 39.5 °F 26.1 °F 49% 30.12 in - ENE 8.1 mph - N/A   Clear
2:56 PM 43.0 °F 38.8 °F 25.0 °F 49% 30.11 in - ENE 6.9 mph - N/A   Clear
3:56 PM 44.1 °F 40.1 °F 27.0 °F 51% 30.10 in - ENE 6.9 mph - N/A   Clear
4:56 PM 43.0 °F 39.5 °F 28.9 °F 58% 30.09 in - East 5.8 mph - N/A   Clear
5:56 PM 42.1 °F 39.2 °F 30.0 °F 62% 30.11 in - SE 4.6 mph - N/A   Clear
6:56 PM 42.1 °F 39.2 °F 30.9 °F 65% 30.11 in - SSE 4.6 mph - N/A   Clear
7:56 PM 43.0 °F 40.3 °F 30.0 °F 60% 30.10 in - South 4.6 mph - N/A   Clear
8:56 PM 44.1 °F 40.8 °F 32.0 °F 63% 30.09 in - South 5.8 mph - N/A   Clear
9:56 PM 44.1 °F 42.5 °F 32.0 °F 63% 30.09 in - South 3.5 mph - N/A   Clear
10:56 PM 44.1 °F 42.5 °F 35.1 °F 71% 30.06 in - South 3.5 mph - N/A   Clear
11:56 PM 43.0 °F 39.5 °F 33.1 °F 68% 30.07 in - WSW 5.8 mph - N/A   Clear